HOURLY OBS INDEX

062

Central Tablelands - north

MUDGEE AIRPORT AWS

Site: 062101
Alt: 471.0m
4km NE of MUDGEE


  Time     Wind        Temp  DP   Baro     Rain since   Rain past  Vis(m), Cloud(base in m), Weather
  local        km/h                         9am  last   hr   10m    
Tue 17:00   NW 24/ 41  34.0 13.5  1003.4    0.0   0.0   0.0   0.0   10000|SC2760 SC3450 
Tue 17:30   NW 19/ 26  33.9 13.4  1003.3    0.0   0.0   0.0   0.0   10000|BR3000 OC3450 
Tue 18:00   NW 17/ 24  32.9 13.5  1003.3    0.0   0.0   0.0   0.0   10000|BR2940 OC3600 
Tue 18:30  WNW 15/ 24  32.8 13.9  1003.3    0.0   0.0   0.0   0.0   10000|OC3000 
Tue 19:00  WNW  7/ 11  32.2 14.3  1003.8    0.0   0.0   0.0   0.0   10000|OC3000 
Tue 19:30    C  0/  0  31.8 14.4  1004.1    0.0   0.0   0.0   0.0   10000|OC3000 
Tue 20:00    S 13/ 17  30.0 14.5  1004.6    0.0   0.0   0.0   0.0   10000|OC2820 
Tue 20:30    S 13/ 17  29.1 14.9  1005.0    0.0   0.0   0.0   0.0   10000|BR3000 
Tue 21:00  SSW 11/ 15  28.2 15.8  1005.6    0.0   0.0   0.0   0.0   10000 
Tue 21:30  SSE  9/ 13  27.8 15.5  1006.0    0.0   0.0   0.0   0.0   10000|SC2790 
Tue 22:00    S 11/ 13  27.5 15.8  1006.3    0.0   0.0   0.0   0.0   10000|SC2850 BR3450 

NULLO MOUNTAIN AWS

Site: 062100
Alt: 1130.0m
62km ESE of MUDGEE


  Time     Wind        Temp  DP   Baro     Rain since   Rain past  Vis(m), Cloud(base in m), Weather
  local        km/h                         9am  last   hr   10m    
Tue 17:00   NW 11/ 19  27.3 13.3  ------    0.0   0.0   0.0   0.0   ----- 
Tue 17:30   NW  9/ 17  26.8 13.5  ------    0.0   0.0   0.0   0.0   ----- 
Tue 18:00   NW  9/ 17  26.9 13.3  ------    0.0   0.0   0.0   0.0   ----- 
Tue 18:30  NNW  7/ 19  26.2 13.0  ------    0.0   0.0   0.0   0.0   ----- 
Tue 19:00   NW  6/ 11  26.0 12.5  ------    0.0   0.0   0.0   0.0   ----- 
Tue 19:30   NW  6/ 11  25.5 11.7  ------    0.0   0.0   0.0   0.0   ----- 
Tue 20:00  NNW  4/  9  25.1 12.0  ------    0.0   0.0   0.0   0.0   ----- 
Tue 20:30    N  4/  9  24.4 12.4  ------    0.0   0.0   0.0   0.0   ----- 
Tue 21:00    N  6/  9  24.2 12.5  ------    0.0   0.0   0.0   0.0   ----- 
Tue 21:30    C  0/  0  23.5 12.5  ------    0.0   0.0   0.0   0.0   ----- 
Tue 22:00    C  0/  0  22.7 12.6  ------    0.0   0.0   0.0   0.0   -----